Theta_e
318 318 320 321 320 321 323 323 322 323 323 317 319 321 321 326 327 329 331 330 329 329 328 327 328 327 329 330 331 331 331 332 331 329 329 335 333 334 336 337 340 339 340 340 340 340 337 336 337 338 339 340 341 340 340 339 338 337 336 334 332 330 332 333 332 331 332 333 333 332 333 333 333 332 332 330 330 330 330 330 330 330 331 331 331 331 331 331 331 330 329 327 325 325 326 327 326
319 319 320 321 320 321 323 323 320 319 319 315 319 322 322 327 326 329 332 330 332 331 328 328 328 329 332 331 330 331 333 333 333 333 334 333 333 334 335 338 339 339 340 340 341 340 339 336 335 336 336 338 340 339 338 337 337 336 336 334 331 329 330 332 331 333 332 332 331 331 332 332 332 331 330 330 330 329 329 330 330 330 331 331 331 331 331 331 330 330 329 328 325 325 326 327 326
319 319 320 322 322 321 322 322 319 316 316 314 317 323 324 327 328 328 330 331 334 332 330 329 329 331 331 332 332 332 335 334 332 333 334 333 334 334 335 338 339 340 340 340 340 340 340 336 334 334 333 335 337 338 338 337 335 334 334 334 331 329 330 331 333 334 332 332 332 332 332 332 333 332 331 330 329 329 330 330 330 331 331 331 330 330 330 330 330 329 329 327 326 326 326 327 326
319 320 320 322 323 322 323 322 320 316 314 314 315 323 325 327 328 328 330 333 333 331 331 330 330 332 332 334 334 333 334 335 335 334 333 334 335 335 335 338 338 339 340 340 340 340 340 336 333 331 332 334 335 336 337 337 335 334 334 333 331 329 331 332 334 335 333 332 333 332 332 333 333 333 331 330 329 330 330 330 330 330 330 330 330 329 330 330 329 329 328 327 326 326 326 326 326
320 320 319 322 323 322 323 321 321 317 315 316 316 321 325 326 328 330 332 333 332 331 332 331 332 333 332 335 334 335 335 335 336 334 334 335 335 335 335 337 338 339 339 340 340 339 339 336 332 329 331 334 335 335 335 335 334 334 333 333 331 329 331 333 335 336 334 333 332 332 331 332 332 332 331 329 329 329 329 329 329 329 329 329 329 329 329 329 329 329 328 327 327 326 325 325 326
320 321 319 321 322 320 321 318 317 317 318 320 319 321 323 325 329 332 334 333 330 330 330 332 334 333 333 335 334 335 336 335 336 335 335 335 334 335 335 336 338 339 339 340 339 339 338 335 332 330 329 332 333 332 333 333 332 332 331 332 332 330 332 334 334 335 335 334 332 331 330 330 332 331 330 329 329 328 329 329 329 329 329 329 329 329 329 329 329 328 328 327 327 325 324 325 325
320 321 322 323 322 321 321 317 316 318 319 320 321 323 322 323 329 333 335 334 331 329 328 331 334 333 333 335 334 335 334 335 335 335 334 335 334 335 335 336 338 339 339 339 339 339 337 334 332 329 328 330 331 329 329 331 332 331 329 331 332 330 331 333 333 335 336 335 333 331 330 330 331 329 328 328 329 328 329 329 329 329 329 329 329 329 329 328 328 327 327 326 325 324 324 324 324
319 321 323 324 324 324 322 319 318 320 318 317 320 322 322 325 330 334 335 334 332 331 330 332 333 333 335 333 335 336 333 334 333 334 334 334 334 334 335 336 337 338 339 339 339 339 336 333 330 329 328 327 328 328 329 332 332 330 330 331 331 330 331 332 333 334 336 335 334 333 330 330 329 327 328 328 328 329 329 329 329 328 329 329 328 329 328 328 327 327 327 325 324 324 324 324 323
320 322 323 324 324 324 322 321 321 320 319 318 318 319 321 326 331 334 334 332 330 331 332 333 332 334 336 334 335 335 334 335 332 334 334 334 335 334 335 335 337 338 338 338 338 338 335 332 329 329 328 326 328 328 329 331 330 330 331 331 331 330 331 332 333 335 335 335 335 333 331 329 328 328 329 329 329 329 329 329 328 328 329 329 328 328 327 327 327 327 326 325 323 322 322 322 321
322 323 323 324 324 322 321 322 321 320 320 318 319 320 322 327 332 334 334 332 329 331 333 332 331 332 334 335 335 334 334 334 332 335 335 335 335 334 334 334 336 338 338 338 338 337 335 331 329 330 327 328 330 330 330 329 328 330 331 330 331 330 331 332 333 334 335 334 334 333 331 329 329 329 329 328 329 329 329 328 328 328 328 328 328 327 326 326 327 327 326 324 322 320 320 320 320
325 324 322 323 321 321 321 322 322 321 320 318 320 321 323 328 331 333 332 330 328 332 333 331 333 332 333 335 334 334 333 333 334 336 335 335 335 334 333 333 336 337 337 337 337 337 335 332 330 328 326 329 331 330 331 330 328 330 330 330 330 330 331 332 332 332 333 333 333 333 331 330 329 328 327 326 326 327 328 328 327 328 327 327 327 326 326 326 327 326 325 324 322 320 320 320 320
326 326 324 324 322 322 322 322 323 323 321 320 322 322 323 328 330 331 331 329 328 331 333 332 333 332 334 334 333 334 333 334 336 335 335 335 335 334 333 333 335 336 337 337 337 337 336 333 331 327 325 329 330 330 331 330 329 330 330 330 330 330 331 332 332 332 332 332 333 333 333 331 329 328 327 325 325 326 326 327 327 327 326 326 325 325 325 325 326 325 324 324 323 321 320 321 321
326 328 327 326 325 325 323 322 322 323 321 322 325 323 324 328 330 331 330 330 329 332 332 332 332 331 332 333 334 334 333 335 335 334 335 335 335 335 334 333 334 335 336 337 337 336 336 334 333 329 325 328 328 329 330 329 329 330 330 329 329 330 331 331 332 332 332 332 333 333 333 332 330 329 327 324 326 327 326 326 326 326 325 325 325 324 325 325 323 322 322 323 323 322 321 321 321
324 327 328 328 327 326 324 323 322 321 321 324 324 322 324 327 328 328 328 329 330 330 329 330 332 331 332 332 333 334 334 335 334 334 334 335 335 335 334 333 333 334 335 336 337 336 336 334 334 331 327 329 328 327 329 328 327 329 329 329 328 329 330 331 330 331 331 331 332 333 333 333 331 329 327 325 325 327 326 325 326 325 324 325 324 323 324 322 320 318 319 320 321 321 321 321 321
323 325 327 329 328 326 325 324 324 320 321 325 322 321 325 323 322 326 327 328 328 327 326 329 331 329 331 331 332 334 335 334 333 334 334 335 335 334 334 333 333 334 334 336 336 336 335 334 334 332 330 331 329 327 328 326 326 327 327 328 328 328 329 329 329 329 329 329 330 331 332 332 331 329 328 327 326 325 324 325 326 325 324 324 323 321 320 318 316 316 316 317 320 321 321 320 320
323 323 325 328 327 326 326 324 322 321 323 324 319 320 327 321 318 323 324 324 326 324 326 331 330 330 330 331 333 334 334 333 333 334 334 334 334 334 333 332 333 333 335 335 336 336 335 334 333 332 331 331 330 329 328 327 327 328 328 328 328 327 327 327 327 328 329 329 330 331 331 331 330 329 329 328 327 325 323 323 325 325 324 323 322 320 318 316 316 315 315 316 318 320 320 320 320
322 323 325 327 326 327 326 325 323 322 323 321 316 319 329 324 317 319 320 322 325 326 327 329 329 329 330 332 332 332 333 333 333 333 334 334 333 333 332 332 332 333 334 335 335 336 335 334 333 332 331 330 329 328 329 329 328 328 328 329 329 327 326 325 326 327 329 330 330 331 331 331 330 329 329 329 328 327 325 324 324 324 323 322 320 318 316 316 316 315 316 316 317 318 319 320 320
321 324 326 326 327 327 326 326 324 322 322 320 318 320 327 326 319 319 322 323 326 327 328 328 329 329 330 331 331 331 332 333 333 333 334 333 333 333 332 331 331 332 334 334 335 336 335 334 333 332 331 330 329 329 329 326 325 327 328 329 329 328 327 326 326 327 328 329 329 330 330 330 330 330 329 329 328 327 326 325 323 323 322 321 319 317 316 316 316 316 317 317 318 319 319 320 320
322 325 326 327 328 326 323 324 322 321 321 321 319 319 323 325 321 321 323 324 325 327 328 328 329 330 331 330 331 331 332 333 333 334 334 333 333 333 332 332 331 331 332 334 334 335 335 334 333 332 331 330 330 330 328 324 323 327 328 328 328 328 327 327 327 327 327 328 329 329 330 330 330 329 329 328 328 327 326 325 323 322 321 320 319 318 317 317 317 316 317 318 318 319 319 320 320
321 324 326 328 326 323 321 321 321 319 318 319 319 317 319 321 321 322 323 325 325 325 327 329 329 329 331 331 332 332 332 334 333 334 334 333 333 333 332 332 332 331 332 333 334 335 335 334 333 332 331 330 330 330 329 327 326 327 327 327 327 327 327 327 327 326 326 326 327 328 328 328 328 328 328 328 328 327 326 325 323 322 321 321 320 318 317 317 317 317 317 318 318 319 319 320 321
322 322 326 327 323 323 322 320 319 317 315 318 319 317 318 318 319 322 323 324 325 325 325 326 327 327 331 331 332 332 332 333 333 334 334 333 333 332 333 332 332 332 332 332 333 334 335 334 333 333 332 331 330 330 330 329 328 328 327 327 327 327 327 327 327 326 325 324 325 327 327 327 327 327 327 327 328 327 327 326 325 324 323 322 320 318 318 317 318 317 317 318 318 319 319 319 320
323 323 325 325 321 324 322 318 317 314 313 316 318 318 319 318 318 322 323 323 324 325 325 325 325 325 331 332 332 333 333 333 333 334 334 334 334 333 333 332 332 332 332 332 332 334 336 335 333 333 333 331 331 331 330 329 329 328 327 327 326 326 326 326 327 327 326 325 324 326 326 326 325 326 326 326 327 327 327 327 326 325 324 322 320 318 318 318 318 318 318 318 318 318 318 317 318
324 324 324 321 320 322 318 315 313 312 314 316 317 319 318 318 320 321 322 323 323 321 320 322 324 326 332 333 333 332 332 334 333 333 334 334 333 333 333 333 333 332 332 333 332 334 336 336 334 333 333 332 331 330 331 330 329 328 327 326 325 325 325 325 326 326 326 325 325 325 325 325 326 326 326 325 326 326 326 326 326 325 323 321 320 319 318 317 318 318 318 318 318 317 317 317 317
323 325 325 320 318 318 313 311 311 311 315 316 315 317 317 320 321 319 320 323 321 316 314 318 323 327 331 332 332 332 333 334 334 334 334 334 333 333 333 333 333 333 333 333 333 333 335 336 335 333 333 332 331 330 330 330 330 329 328 327 325 324 324 324 325 325 325 325 325 325 324 325 325 325 326 325 325 325 325 325 325 324 323 322 321 320 319 318 318 317 318 318 318 318 317 317 317
322 324 324 319 317 315 310 309 309 310 313 313 313 316 318 319 317 316 319 322 319 315 315 319 323 326 329 330 331 333 334 334 334 334 333 333 333 333 333 333 333 333 333 333 333 333 333 335 335 334 332 332 332 330 330 330 330 330 329 328 326 324 323 323 323 324 324 324 324 325 325 325 324 324 325 325 325 325 325 325 324 323 322 321 320 320 319 318 317 317 318 317 318 317 317 318 319
322 323 323 320 317 314 309 310 310 310 312 311 314 317 317 316 314 316 319 320 319 315 318 322 323 325 328 329 330 333 334 335 335 334 333 332 332 332 332 333 333 333 333 333 333 333 333 333 334 333 332 331 331 331 330 329 329 329 329 328 327 325 324 324 323 322 322 323 324 324 324 324 324 324 324 324 324 324 324 324 323 322 320 320 319 319 318 318 317 317 317 317 318 317 318 320 319
323 322 322 320 317 313 310 312 311 310 312 312 315 318 316 313 314 320 319 318 318 315 318 324 324 324 327 329 330 333 334 334 335 334 333 332 331 332 332 332 333 333 333 333 333 333 333 333 333 332 331 332 332 332 331 329 329 329 329 329 328 327 325 325 324 322 321 322 323 323 324 324 324 323 323 324 323 323 323 323 322 320 319 319 319 318 317 317 317 317 317 317 318 318 319 321 319
324 321 323 320 316 315 312 312 312 312 313 313 315 317 316 314 314 319 318 315 315 316 319 323 324 323 326 328 329 332 334 334 334 333 333 332 331 332 332 332 333 333 333 333 333 333 333 333 332 332 332 332 332 332 331 329 329 330 330 329 328 328 327 325 325 323 321 322 323 323 323 323 324 323 323 323 322 322 322 322 321 320 320 320 319 319 318 317 316 316 317 317 317 317 318 320 318
323 321 325 323 320 320 315 313 313 314 314 313 314 316 317 316 315 317 317 314 314 316 318 322 324 324 325 328 329 330 332 333 333 333 333 333 332 332 332 332 332 333 333 333 333 333 333 333 332 332 332 332 332 332 331 330 329 330 330 329 329 328 328 327 325 324 323 323 323 323 323 323 323 323 323 323 322 321 321 321 320 321 322 322 321 321 321 319 317 316 316 316 316 317 318 320 320
323 324 327 326 326 326 320 316 314 314 314 314 315 319 322 320 317 316 317 315 315 315 317 320 323 325 326 327 329 329 331 333 332 332 333 333 333 332 332 333 332 333 332 332 333 333 333 333 332 332 332 332 332 332 331 330 330 330 330 329 329 328 328 327 326 326 325 324 324 324 324 324 324 323 323 323 322 321 321 321 321 322 323 323 323 322 322 322 321 320 319 319 319 320 321 323 323
327 327 328 328 330 330 324 318 315 315 315 314 316 319 325 323 318 317 317 316 316 317 317 318 321 323 325 326 328 329 330 332 332 331 332 332 332 332 332 333 332 332 332 332 332 332 333 332 332 333 332 332 332 332 332 331 330 330 330 330 329 329 328 328 327 327 326 325 325 325 325 325 324 324 323 323 322 322 322 322 322 323 323 323 324 323 323 323 323 323 322 323 323 323 323 323 322
330 330 333 331 331 331 327 322 317 318 317 314 316 319 323 323 320 318 317 316 316 318 318 318 319 320 322 325 326 327 329 331 332 331 331 331 332 332 331 332 332 332 332 332 332 332 332 332 332 332 332 332 331 332 331 331 330 330 331 330 329 329 328 328 328 328 327 326 326 325 325 325 325 324 324 323 322 322 322 322 323 322 322 323 324 324 324 324 324 324 324 324 324 324 324 324 323
331 331 335 333 332 333 330 325 319 319 319 316 317 322 324 324 322 319 316 315 316 317 318 318 318 318 319 322 324 325 327 329 331 331 331 331 331 331 331 331 331 332 332 332 332 332 331 331 331 331 332 332 332 331 330 330 329 329 330 330 329 329 329 329 329 329 328 327 326 326 325 325 324 324 324 323 322 322 322 323 323 321 319 321 323 324 324 324 324 325 325 324 323 324 324 324 324
333 332 335 333 332 333 331 329 322 320 321 319 318 320 324 325 323 320 316 316 317 316 317 318 318 318 318 319 321 323 325 326 328 330 331 331 331 331 330 330 330 330 331 331 332 331 331 331 331 331 331 331 332 332 331 330 330 329 329 329 328 329 329 329 329 329 328 328 327 326 325 324 325 325 324 324 323 322 321 320 320 318 318 319 322 323 323 323 324 324 324 324 323 323 324 324 324
335 333 335 334 333 332 332 331 325 321 323 324 323 321 324 326 323 322 318 316 318 319 319 319 319 319 318 318 319 320 322 323 325 328 329 330 331 331 330 330 329 330 330 330 331 331 331 331 331 330 330 330 331 331 331 330 330 330 329 329 328 327 328 329 329 328 328 329 328 327 326 325 325 325 324 324 324 323 321 319 317 317 317 319 321 322 323 323 323 323 323 324 323 323 323 324 324
334 332 334 334 333 332 332 330 324 323 325 326 327 326 325 327 325 323 322 318 318 320 321 321 321 320 320 319 318 319 320 321 323 326 328 329 330 330 330 330 329 329 329 329 329 330 330 330 330 330 330 330 330 330 330 330 330 330 329 329 328 328 327 327 327 327 328 328 328 328 327 326 326 325 324 325 324 323 323 322 321 320 319 320 321 322 323 323 323 323 323 323 323 323 322 322 323
333 332 333 333 333 331 331 330 323 321 327 328 328 329 328 328 327 325 324 322 319 320 321 321 321 321 320 320 319 319 319 320 323 325 326 328 328 329 329 329 330 330 329 329 328 329 329 329 330 329 329 330 330 330 330 330 330 330 329 329 328 328 327 326 326 327 327 328 329 329 328 327 326 325 325 325 325 325 324 323 323 322 322 323 323 323 323 323 323 323 323 323 322 323 323 323 322
333 333 333 333 333 331 329 327 322 319 325 330 328 328 329 329 328 325 325 325 322 322 322 322 322 322 322 321 321 320 320 320 321 322 323 325 327 328 329 329 330 330 329 329 329 328 328 328 329 329 329 329 329 330 330 330 330 330 329 329 328 328 327 326 326 326 326 327 328 328 328 327 326 326 326 326 326 326 325 324 323 323 323 324 323 323 323 323 323 322 322 323 323 322 323 324 322
334 335 334 335 334 331 327 323 320 320 325 330 328 326 328 328 327 327 325 325 325 325 324 324 324 324 324 323 323 323 322 322 321 320 320 322 325 327 329 329 329 329 329 329 329 329 329 328 328 328 328 328 328 329 329 330 330 329 329 329 328 328 327 327 326 326 325 326 326 326 326 327 326 326 326 326 326 325 325 324 324 323 323 324 323 323 323 323 323 322 322 322 323 323 322 322 321
334 337 336 336 334 334 332 325 319 320 323 324 323 324 327 327 326 326 325 324 324 325 324 324 325 324 324 324 325 324 324 324 322 321 320 320 323 326 328 329 329 329 329 330 330 330 329 329 328 328 328 328 328 328 328 329 329 329 329 329 329 328 328 327 326 326 326 325 325 325 325 325 325 325 325 325 325 325 325 324 324 324 324 324 324 323 323 323 323 323 323 322 322 323 323 322 321
332 335 336 335 333 333 331 324 319 320 321 320 322 327 329 328 329 328 326 324 323 324 324 324 324 324 324 324 325 325 324 324 323 322 320 319 320 323 326 328 328 329 330 330 330 329 329 329 328 328 328 328 328 328 328 328 328 328 328 329 328 328 328 327 326 326 326 325 325 324 325 325 325 325 325 325 325 325 324 324 324 324 324 324 324 324 324 324 324 323 323 322 322 322 324 324 322
330 333 334 332 332 331 325 321 322 326 327 323 325 332 331 327 329 330 327 325 324 324 323 323 324 323 324 323 324 324 324 324 323 322 322 321 320 321 324 326 328 329 329 329 329 328 328 328 328 328 328 328 328 328 327 327 327 327 328 328 328 327 327 327 326 326 325 325 324 324 325 326 325 326 326 326 325 325 324 324 324 324 323 324 324 323 324 324 324 323 322 323 323 322 323 324 324
331 331 330 329 331 330 324 323 327 331 331 323 321 331 332 327 328 329 328 326 325 326 324 323 323 322 322 322 323 323 323 323 323 322 321 321 320 320 321 324 327 328 327 327 327 327 327 328 327 327 328 328 328 328 327 327 326 327 327 327 327 327 327 327 326 326 325 324 325 325 325 326 326 326 325 325 325 325 324 324 324 324 324 323 323 323 323 324 324 323 322 323 323 323 322 323 324
330 330 330 329 329 329 327 326 329 330 330 323 318 325 331 329 329 327 327 327 327 327 326 325 324 322 321 322 321 322 321 322 322 322 321 320 321 320 319 321 323 324 324 325 326 326 327 327 327 326 327 328 328 328 327 327 327 326 327 327 327 327 327 327 327 326 325 325 325 325 325 325 325 325 325 325 325 325 324 324 324 324 324 324 323 323 323 323 323 323 323 323 323 323 323 322 323
330 329 328 328 328 330 328 328 330 328 330 331 323 323 329 332 329 325 325 326 328 328 327 327 326 324 322 321 321 321 321 321 321 321 321 320 320 319 319 319 320 321 322 324 324 325 326 327 327 328 327 328 327 328 327 327 326 326 326 327 327 327 327 327 328 327 326 325 325 325 325 325 325 325 325 325 326 326 325 324 325 324 324 324 324 323 323 323 323 323 323 323 322 322 322 322 322
329 326 325 325 327 329 327 329 331 328 330 335 328 324 331 333 328 325 324 325 328 328 327 329 327 326 325 323 322 321 320 320 320 320 320 320 320 319 318 318 317 318 319 321 323 324 326 327 328 328 328 328 327 327 327 327 326 326 326 327 327 327 327 327 327 327 326 325 325 325 325 325 325 325 325 325 325 325 325 325 324 325 325 324 324 323 324 323 324 323 323 323 323 323 322 322 322
326 325 325 327 328 329 330 329 330 331 334 335 330 325 330 333 329 326 327 326 327 328 328 328 327 326 325 325 323 321 319 319 318 318 318 319 319 318 318 317 316 316 316 317 320 322 324 326 327 327 327 328 327 327 327 326 326 326 326 326 326 326 326 327 327 327 326 326 325 325 325 325 325 325 325 325 325 325 325 325 325 325 325 324 324 324 324 324 324 324 323 323 323 323 322 322 322
326 328 331 331 329 330 331 329 330 335 337 333 329 326 328 332 330 325 327 326 324 326 327 328 327 325 325 324 322 318 317 317 317 317 317 317 317 316 316 316 315 315 315 315 318 320 323 325 326 327 327 328 327 327 327 326 326 326 326 326 326 326 326 326 326 326 326 326 325 325 325 325 325 325 325 325 325 325 325 325 325 325 325 325 324 324 324 324 324 324 323 323 323 323 322 322 322
328 332 332 333 331 332 334 333 333 336 334 327 326 328 329 330 328 325 326 326 324 324 324 325 325 324 324 325 322 318 318 317 316 316 316 316 316 316 316 315 315 315 315 315 316 319 322 324 325 327 327 327 327 327 326 326 326 326 326 326 326 326 326 326 326 325 326 325 325 325 325 325 325 325 325 325 325 325 325 325 325 325 325 325 325 325 324 324 324 324 324 323 323 323 322 322 322
330 331 331 332 333 335 336 335 334 334 331 323 322 327 330 329 326 325 325 325 325 325 323 324 323 323 323 324 321 319 318 318 317 317 317 316 315 316 316 315 315 315 314 315 315 316 320 323 325 327 327 327 327 327 326 326 326 326 326 326 325 325 325 326 325 325 325 325 325 325 325 325 325 325 325 325 325 325 325 325 325 325 325 325 325 324 324 325 324 324 324 323 323 323 322 322 323
330 331 332 332 331 333 334 333 333 332 328 323 323 327 330 328 325 323 322 322 323 322 322 321 321 320 320 320 320 319 317 317 317 317 315 314 315 315 315 315 315 315 314 314 315 315 318 321 323 325 326 327 327 326 326 326 326 326 326 326 326 326 325 325 325 325 326 326 326 326 326 325 325 325 325 325 325 325 325 325 325 325 325 325 325 324 324 325 324 324 324 324 323 323 323 323 323
329 330 333 333 330 328 327 327 327 327 327 325 324 326 326 324 323 322 322 321 321 320 320 319 319 318 317 318 319 318 317 317 318 317 314 314 315 315 314 314 314 314 314 314 314 315 316 318 321 323 324 326 326 326 326 326 326 326 326 326 326 326 325 325 325 325 325 326 326 325 325 325 325 325 325 325 325 325 326 325 325 326 325 325 325 325 325 325 325 324 324 324 323 323 323 323 323
330 330 332 331 328 326 325 324 322 323 328 328 325 326 325 323 324 323 323 323 322 322 322 320 319 318 317 317 319 319 319 319 318 316 314 314 314 314 313 313 313 313 313 313 313 313 315 317 320 322 324 326 326 325 326 326 326 326 326 326 325 325 325 325 325 325 325 325 326 325 325 325 325 325 325 326 326 325 325 325 325 326 326 325 325 325 325 325 325 324 324 324 324 324 324 324 324
331 332 330 326 326 328 327 327 325 325 328 328 326 327 326 326 326 323 322 324 324 324 324 322 320 320 321 323 323 322 321 320 317 314 313 311 312 313 312 311 311 311 311 311 311 311 312 314 318 321 323 325 326 325 325 325 325 326 326 326 326 325 325 325 325 325 325 325 325 325 325 325 326 326 326 326 326 325 325 325 325 325 326 326 325 325 325 325 325 324 324 324 324 324 324 324 324
327 329 327 326 329 331 329 329 330 329 329 328 326 326 325 326 325 321 322 324 324 324 324 323 321 321 323 326 327 323 321 321 317 313 311 310 310 310 310 309 308 308 308 308 309 309 309 311 314 318 321 323 324 324 325 325 325 325 326 326 326 326 326 325 326 326 326 326 325 325 325 325 325 326 326 326 325 325 325 325 325 325 325 326 325 325 325 326 325 325 325 325 324 325 325 324 324
325 327 328 328 330 330 328 328 329 329 330 330 327 325 324 325 324 322 323 324 323 324 323 323 323 322 323 324 324 322 322 321 318 314 312 312 312 309 307 307 306 305 305 305 306 307 307 309 310 314 318 321 323 324 324 325 325 325 325 326 326 326 326 326 326 326 326 326 325 325 325 325 325 326 326 326 325 325 325 325 325 325 326 326 325 326 326 327 327 326 326 325 325 325 325 324 324
328 329 330 329 328 328 328 328 327 326 328 329 328 327 323 322 323 323 322 322 323 324 324 323 324 323 323 323 321 321 320 318 318 318 314 312 312 309 306 305 304 304 304 304 305 306 306 308 309 311 315 318 320 322 323 324 325 325 325 326 326 326 326 326 326 326 326 326 326 326 325 326 326 326 325 325 325 325 325 325 325 325 326 326 326 327 327 327 327 326 326 325 325 324 324 324 323
329 331 331 329 328 328 330 331 328 326 326 326 327 328 324 320 322 322 322 322 322 324 325 324 324 323 322 321 319 317 316 315 316 315 312 310 309 308 306 305 303 304 304 304 305 305 306 307 308 310 313 316 318 319 321 322 324 324 325 326 326 326 326 326 326 326 326 326 326 326 326 326 326 326 325 325 325 325 325 325 325 326 326 326 327 327 327 327 327 326 326 325 324 324 324 323 323
Wind_Speed
10 9 10 7 3 2 2 1 2 1 2 3 1 1 3 2 2 2 5 5 3 5 3 2 7 6 2 2 0 1 3 3 3 3 1 4 7 14 11 15 18 17 18 15 14 15 15 15 14 12 11 11 12 12 12 12 12 11 10 10 9 10 11 11 10 9 9 9 10 11 10 9 9 10 11 11 12 14 15 15 15 15 15 15 16 16 15 16 16 16 17 17 17 18 18 18 18
11 8 9 5 3 3 1 0 3 1 3 3 2 1 3 4 3 5 7 6 2 4 4 3 7 3 2 4 1 1 2 0 5 4 4 6 12 12 11 17 18 17 17 15 14 13 13 15 15 13 11 11 11 11 10 10 10 10 10 10 9 10 11 11 9 9 9 10 11 11 9 9 9 10 11 12 13 14 14 14 14 14 14 15 16 16 15 16 16 16 15 15 16 18 18 18 17
11 8 9 5 2 1 1 1 4 2 4 3 2 3 4 5 6 5 4 3 4 6 5 5 6 2 2 2 2 3 1 3 2 3 5 9 12 11 13 17 18 17 16 15 15 13 12 13 14 12 11 12 11 10 10 10 8 8 9 9 9 9 10 10 9 9 10 11 11 10 9 10 10 11 12 12 12 13 14 14 13 13 14 14 15 15 15 15 15 15 15 14 15 16 17 16 16
10 7 7 4 2 1 1 2 2 3 4 2 1 5 6 7 7 4 5 5 5 5 5 6 6 1 3 3 0 2 1 3 3 3 5 10 9 12 16 17 18 17 16 14 14 13 12 13 13 12 12 12 11 12 12 11 9 8 9 9 9 10 10 9 9 10 11 12 12 10 10 11 10 11 12 12 12 12 13 14 13 13 13 13 14 15 14 15 14 14 14 14 14 15 15 15 15
9 7 7 2 3 1 0 1 1 3 3 1 1 4 7 7 7 6 7 6 5 3 3 6 4 2 2 3 1 2 0 3 5 4 5 9 9 15 17 17 17 16 16 14 14 13 12 13 12 12 14 13 12 12 13 12 11 11 10 9 9 10 11 8 8 10 12 12 11 11 11 10 8 9 11 11 11 11 13 13 13 13 13 13 13 14 14 14 14 13 13 13 13 13 13 14 13
8 5 4 3 0 1 2 2 2 4 1 1 2 2 6 7 7 9 9 7 4 0 1 4 3 2 3 1 2 2 3 2 4 5 5 9 12 15 17 16 14 15 16 14 14 13 12 13 12 12 14 14 13 12 12 12 11 11 11 10 8 11 11 8 6 8 12 12 11 11 11 10 8 8 9 10 10 11 12 12 12 12 12 12 12 13 13 13 13 13 12 12 12 11 12 13 12
5 4 1 2 2 0 4 4 3 3 1 0 2 3 4 7 7 10 11 7 4 1 2 3 1 3 3 2 3 1 2 2 3 3 6 12 14 15 16 16 14 14 14 13 13 12 13 14 12 12 13 14 12 11 11 10 9 10 11 10 9 11 10 7 6 7 11 11 9 11 11 10 8 6 8 11 11 11 12 11 12 11 11 11 11 12 12 12 12 11 12 11 11 11 11 12 12
4 3 1 2 1 1 3 4 3 2 1 0 2 2 1 6 9 11 12 7 5 4 4 3 3 5 2 1 2 3 1 1 2 3 9 14 15 15 15 16 14 14 13 13 13 12 14 14 12 11 12 12 11 11 11 12 10 10 12 11 9 10 9 6 5 7 10 9 9 11 10 8 7 7 9 11 11 11 11 11 11 11 11 10 10 11 11 11 11 11 11 10 11 11 11 11 11
3 3 1 3 2 2 3 3 2 1 1 1 2 2 1 5 9 11 12 6 3 4 5 4 4 4 3 4 2 3 2 1 2 5 12 15 15 15 15 15 15 14 14 14 13 13 14 14 13 12 11 11 10 10 12 12 11 12 12 11 10 9 9 7 6 8 10 9 8 10 9 7 7 8 10 10 10 10 11 11 10 10 10 10 10 10 10 10 10 10 10 10 10 10 10 10 9
2 1 1 2 2 4 5 4 2 1 2 2 2 3 3 7 9 9 12 7 4 5 5 3 3 4 1 5 2 2 3 2 5 7 12 15 15 14 14 15 14 15 15 14 13 13 14 14 13 12 12 13 12 11 11 10 11 14 12 11 11 10 10 8 7 7 9 9 8 8 8 8 8 9 9 9 9 9 10 10 10 10 9 9 9 9 9 9 10 10 10 9 9 9 9 9 8
3 1 1 3 4 5 5 4 3 2 1 2 3 4 4 8 9 8 8 6 4 4 5 4 4 5 3 2 2 2 2 5 7 10 13 15 14 13 14 14 14 14 14 15 14 13 14 15 14 13 13 15 14 12 12 10 11 13 12 12 11 12 12 9 7 7 8 8 7 7 7 8 8 7 7 7 8 8 9 9 9 9 9 9 9 8 9 10 10 9 9 8 8 8 8 8 7
5 2 2 5 5 5 3 4 4 2 1 3 4 5 6 8 10 9 10 7 6 5 6 8 3 4 6 3 2 3 4 7 8 11 15 14 14 13 13 13 14 14 14 15 14 13 13 14 14 13 14 15 14 14 14 13 13 12 12 13 12 13 12 9 8 7 8 8 8 8 8 7 6 6 5 6 7 8 8 8 8 8 8 8 8 8 8 9 9 8 8 7 7 6 6 6 6
5 3 4 5 3 3 2 3 3 1 3 5 3 6 7 10 11 11 11 7 8 8 6 9 3 2 6 1 2 4 6 10 10 13 16 14 13 13 12 12 14 14 14 15 14 14 13 14 14 13 14 15 14 14 14 14 14 14 13 12 12 13 12 11 8 7 8 8 8 8 8 8 6 5 5 7 8 8 8 7 7 7 7 7 7 8 8 7 7 7 6 6 6 5 4 5 5
3 2 5 5 1 3 3 3 3 3 5 4 4 7 9 8 7 8 9 9 9 6 2 5 4 3 4 1 3 4 8 12 12 14 15 13 12 12 12 11 13 14 15 15 14 14 14 14 14 13 14 14 13 14 14 14 15 15 13 12 12 13 13 12 10 9 9 8 8 7 7 8 6 5 5 6 7 7 7 7 7 6 7 7 7 7 7 6 6 5 4 4 4 3 3 4 4
2 2 4 5 4 4 4 4 2 4 4 5 5 7 9 4 2 6 7 9 6 4 2 3 3 2 3 4 3 2 10 15 15 14 14 13 12 11 11 11 13 14 15 15 14 15 15 15 14 14 14 13 13 13 13 15 16 16 14 12 11 12 13 13 11 10 9 7 7 7 7 7 6 5 5 4 4 5 6 7 6 5 6 6 7 6 6 6 5 4 3 3 3 3 2 3 3
1 2 4 6 7 6 5 4 2 4 3 5 4 6 10 4 1 5 3 3 2 4 2 4 4 2 1 1 2 3 11 18 16 15 14 13 12 11 11 11 13 14 15 15 15 15 16 16 15 15 14 14 13 12 13 14 17 16 14 13 12 12 12 13 12 11 10 8 8 7 7 6 5 5 5 4 3 3 4 6 6 5 6 6 7 6 6 5 5 4 3 3 3 3 2 2 2
1 3 6 7 8 7 5 6 4 3 1 5 5 7 11 7 2 3 1 3 2 4 4 3 3 2 2 2 4 2 12 18 16 16 16 15 13 12 12 13 14 15 16 16 16 15 16 17 16 16 15 15 14 13 13 13 16 16 14 13 12 12 12 13 13 12 11 9 8 8 7 6 6 6 5 5 4 3 4 5 6 6 7 7 7 8 7 6 5 4 3 3 3 3 2 1 1
3 4 7 8 8 7 5 7 6 1 1 6 8 10 12 9 7 3 2 5 3 4 5 3 3 4 2 3 3 6 14 17 17 18 18 17 16 15 14 14 16 17 17 18 17 16 17 17 17 16 16 17 15 14 13 13 16 16 13 12 12 13 13 12 12 13 12 10 9 8 8 7 7 7 6 6 5 5 5 5 6 7 8 8 8 9 8 7 6 4 2 3 2 1 1 1 1
5 5 7 9 7 4 4 6 7 4 2 6 9 9 10 8 9 7 6 9 7 7 7 5 6 7 6 3 4 10 15 17 18 20 19 20 19 18 17 16 17 18 18 19 19 18 18 17 18 18 17 17 16 15 14 15 16 16 14 12 12 13 13 12 11 12 12 11 10 9 8 9 8 8 8 8 7 6 6 6 7 7 8 8 8 8 8 7 6 4 2 2 1 1 1 2 2
5 4 8 8 4 2 3 6 7 5 1 4 8 7 7 6 7 8 7 8 8 10 9 7 10 11 10 8 9 13 15 17 19 20 20 20 19 18 18 18 18 18 19 19 19 19 19 18 18 18 18 18 17 16 14 15 16 16 15 13 13 12 12 12 12 12 12 11 12 10 10 10 10 10 10 9 8 7 7 7 7 7 7 8 8 8 8 8 6 5 4 3 3 2 3 3 3
3 5 10 4 2 4 6 8 6 3 1 2 6 5 7 5 3 7 7 6 8 12 12 11 12 13 12 11 12 15 16 18 20 21 21 20 20 18 18 18 17 17 17 18 18 20 21 21 20 18 19 19 19 16 15 15 14 15 14 13 13 12 12 12 12 12 12 13 12 11 12 12 11 11 11 11 10 9 8 7 7 6 5 6 8 9 9 9 7 7 5 5 5 5 4 4 4
4 10 12 1 2 6 5 6 4 3 2 2 6 7 7 4 3 8 10 10 7 6 10 13 14 11 10 12 13 15 16 19 21 22 22 22 22 20 19 17 17 16 17 18 18 20 21 22 22 20 18 20 20 17 16 15 14 13 13 12 12 12 12 12 12 12 12 13 12 12 14 14 13 13 13 13 12 11 11 9 9 7 6 7 8 9 9 9 8 8 7 7 7 7 6 6 6
6 11 10 3 4 5 1 4 4 5 5 5 6 5 5 7 8 8 12 14 3 4 1 7 9 5 9 13 14 14 15 18 22 24 24 24 24 22 20 19 18 18 18 19 18 19 21 20 22 22 18 18 20 20 17 14 14 14 13 13 12 11 12 12 12 12 11 12 12 13 14 14 13 12 13 14 13 13 12 11 11 10 9 9 9 10 10 10 9 9 9 8 9 9 8 8 8
9 11 8 5 5 4 1 2 5 5 6 4 3 3 6 12 9 4 12 16 2 5 3 1 3 5 9 12 13 15 16 19 22 24 24 23 24 23 20 19 19 19 19 19 18 19 20 19 21 23 19 18 20 22 19 15 14 15 13 13 13 12 12 11 12 11 11 11 11 12 13 12 11 11 12 13 14 14 14 13 13 12 10 10 10 10 10 10 10 10 10 10 10 10 10 10 9
12 13 5 4 4 3 0 1 4 5 4 1 3 6 9 10 4 2 12 15 6 4 2 2 3 6 9 11 13 14 15 18 19 20 21 21 21 21 21 20 19 19 20 19 19 19 20 20 21 22 21 21 21 21 21 18 15 16 14 13 12 14 14 11 11 11 11 12 12 12 12 12 11 11 11 11 13 15 15 14 14 13 12 11 11 11 11 11 11 11 11 12 12 12 12 11 10
12 14 4 4 5 4 3 3 4 5 3 3 6 10 7 3 0 6 15 14 8 5 3 3 4 7 9 10 12 13 13 16 18 18 19 20 19 21 22 22 21 21 21 20 20 20 21 21 21 22 22 23 22 20 23 23 19 17 15 12 12 15 15 12 11 12 11 12 13 12 13 14 12 11 11 10 12 13 13 15 15 13 13 12 11 10 11 11 11 12 12 13 13 13 12 11 11
10 12 3 3 4 3 4 4 4 3 3 6 9 9 4 3 3 9 10 8 9 8 7 5 6 8 9 10 10 12 13 15 17 16 17 18 19 22 24 24 23 22 21 21 21 20 21 22 22 23 24 24 23 21 24 25 22 19 15 13 13 15 16 15 13 13 13 13 13 12 12 14 12 11 11 10 11 11 11 13 14 13 12 11 10 10 11 12 11 12 13 14 14 14 12 11 13
6 10 4 3 2 2 4 4 5 4 4 7 8 7 2 3 6 10 3 4 7 11 10 7 8 10 9 10 9 10 12 13 14 14 17 21 21 23 25 26 26 24 23 23 22 21 21 22 22 22 24 26 25 23 25 27 24 21 17 14 14 15 18 18 17 17 17 15 13 13 13 13 12 12 12 11 12 11 10 12 13 13 11 10 10 10 10 11 12 13 14 14 15 15 13 13 15
4 9 7 6 4 6 8 6 5 6 4 7 6 6 7 9 9 10 4 4 4 9 10 8 9 10 8 9 9 8 11 11 12 15 19 21 20 21 24 26 25 24 23 23 22 22 21 22 23 22 23 26 27 24 23 26 26 24 21 17 14 16 19 20 20 19 18 16 13 13 13 13 13 13 12 13 14 14 12 11 12 14 11 9 11 11 11 12 12 13 14 14 15 15 15 14 14
4 6 6 6 6 9 10 7 5 6 4 6 6 6 11 14 12 11 8 7 6 7 9 9 8 8 7 7 8 8 10 12 15 18 19 18 18 20 22 23 24 23 21 21 23 24 23 22 23 23 23 24 27 27 24 24 26 27 26 22 16 16 18 20 21 20 17 16 15 14 14 13 13 13 12 13 14 13 12 12 12 13 11 10 10 11 13 12 11 13 14 14 14 15 15 13 13
5 4 4 7 9 7 9 7 8 9 4 5 8 8 10 8 11 16 12 9 10 10 11 11 9 7 7 7 7 8 10 14 16 18 17 17 17 18 20 21 23 23 21 21 23 24 24 23 23 22 24 25 25 29 27 24 25 29 31 28 22 19 18 18 20 21 19 18 17 16 17 15 13 14 13 13 13 12 12 12 12 12 12 11 10 11 11 11 11 12 12 13 13 13 14 14 15
4 5 5 10 10 6 7 7 11 11 4 7 9 8 9 5 7 12 8 9 11 12 12 12 10 9 8 7 8 8 9 12 14 16 17 17 17 17 18 20 22 24 23 22 22 23 24 24 23 21 23 26 25 26 27 24 25 29 32 31 29 26 23 21 21 22 21 20 20 19 19 18 16 15 14 13 13 13 13 13 13 15 15 13 13 12 10 11 12 12 11 12 12 12 13 14 15
4 7 8 10 12 9 6 6 10 10 4 8 11 8 8 4 5 5 3 7 11 11 13 13 12 11 10 8 8 8 8 9 11 16 18 19 20 19 19 20 22 25 25 23 22 23 24 24 24 21 22 24 24 25 26 26 26 28 30 32 32 31 28 26 25 24 22 22 22 21 21 20 19 18 16 14 13 14 15 15 15 17 19 18 17 14 12 12 12 13 12 12 12 12 12 13 14
7 8 9 9 13 13 9 5 6 8 5 10 12 11 13 7 4 4 2 6 9 11 13 13 12 11 10 9 8 8 8 9 10 15 20 20 21 20 20 21 21 23 24 25 24 24 25 25 24 22 21 21 21 23 25 25 24 25 27 29 31 32 31 30 29 27 26 25 24 23 22 20 19 19 18 16 14 13 16 18 18 20 21 21 20 16 14 14 13 14 14 12 12 13 13 13 12
12 13 9 6 11 17 16 7 6 9 9 11 12 14 18 15 7 5 4 5 8 12 12 12 13 12 11 9 9 9 9 10 12 15 18 20 21 21 21 22 22 23 24 26 26 25 24 25 24 23 21 21 21 21 23 24 21 21 24 24 25 28 31 32 30 27 28 28 25 23 22 19 17 17 17 17 15 12 15 19 20 21 21 21 21 19 16 15 15 14 14 13 12 13 13 13 13
12 16 11 7 9 14 13 5 4 9 9 11 14 14 17 17 12 10 8 6 8 10 10 10 10 10 9 9 9 10 11 12 13 15 17 18 20 22 23 24 24 25 25 25 26 25 25 25 25 26 24 21 20 19 21 22 21 21 23 24 23 25 29 32 31 29 29 28 27 24 21 18 16 16 18 20 18 15 15 19 21 20 21 20 20 19 17 17 16 15 14 14 14 14 13 13 13
7 13 11 9 11 11 8 4 3 6 8 10 13 15 18 17 14 14 13 10 9 10 12 12 11 10 9 9 10 10 12 11 10 13 14 15 18 22 24 24 24 24 24 24 25 26 28 27 27 30 29 24 22 21 20 22 23 23 25 26 25 25 28 31 31 30 30 31 29 25 21 18 16 16 21 23 23 22 21 22 22 22 22 20 19 18 17 17 16 15 14 14 14 15 14 12 10
6 11 10 11 13 10 5 4 4 4 6 9 10 14 19 18 14 15 14 13 14 14 15 16 16 14 10 11 13 12 11 8 8 11 13 14 16 20 22 23 25 26 27 28 28 29 30 30 29 30 30 29 28 25 22 22 22 23 23 23 24 24 25 29 32 30 31 33 30 28 25 22 18 17 22 25 24 25 25 25 25 24 24 19 16 16 17 16 16 16 15 14 14 14 14 12 10
8 7 9 10 10 6 3 3 3 4 5 7 7 9 16 17 15 15 14 13 16 17 18 18 17 15 14 14 14 13 12 10 12 14 13 15 17 19 20 21 25 29 30 30 30 30 29 31 33 31 30 34 35 31 28 26 22 21 21 19 20 20 20 22 26 25 26 27 26 27 28 26 21 19 22 25 25 23 21 24 26 25 24 19 15 16 16 16 17 16 15 16 14 13 13 12 12
8 7 10 9 9 8 4 4 5 5 4 3 4 6 12 15 14 14 14 15 17 18 18 18 16 15 17 17 15 14 16 15 15 15 14 14 16 18 20 21 24 27 28 27 28 28 28 32 35 34 32 35 38 38 37 33 27 24 20 17 17 18 17 16 18 19 19 19 20 21 23 25 23 22 25 25 25 23 19 21 23 21 22 19 16 16 17 17 18 17 17 17 16 14 14 13 13
9 9 11 8 10 9 3 5 6 3 4 3 4 7 10 13 14 14 12 15 18 18 17 17 15 16 17 17 17 16 17 16 14 15 14 14 16 18 21 23 23 25 27 28 30 32 34 36 39 38 36 37 40 40 40 37 32 28 22 17 17 18 18 17 18 20 18 17 18 18 20 24 25 25 24 22 23 23 19 18 19 20 21 20 19 18 18 19 19 18 18 17 18 17 15 13 12
10 10 10 7 11 9 6 8 7 3 6 6 5 8 8 9 12 12 8 10 14 15 14 16 15 15 16 15 16 16 16 14 13 15 13 13 17 19 20 23 23 25 29 31 34 38 41 40 40 41 40 41 42 41 40 38 35 32 27 22 21 21 21 22 23 23 21 21 21 22 23 26 27 25 21 18 20 20 20 19 18 20 21 20 20 19 19 19 19 20 19 19 19 18 17 15 14
8 6 7 5 10 9 9 10 7 6 6 3 6 9 8 7 10 10 7 7 12 13 12 15 14 14 14 14 14 14 13 13 13 14 14 14 16 17 19 23 25 28 32 33 36 40 41 39 39 41 42 43 43 42 40 39 37 33 31 30 27 23 23 24 25 24 25 27 27 27 29 29 29 27 21 17 19 19 19 20 18 18 20 21 21 19 20 20 20 20 19 18 19 18 18 18 17
7 3 4 5 9 10 10 9 7 6 2 0 5 6 7 9 8 7 8 8 13 15 13 14 13 13 13 13 14 14 14 14 13 13 14 15 16 18 20 23 28 32 33 33 37 40 40 40 41 41 41 41 42 41 40 41 39 34 33 34 31 28 29 26 23 24 27 29 30 31 31 31 31 30 23 19 21 20 19 19 18 17 18 19 20 20 21 21 20 19 18 17 18 18 19 20 19
6 3 5 5 7 8 8 8 7 1 2 6 7 5 6 10 5 3 6 10 14 16 17 17 14 12 12 13 14 15 16 15 14 14 15 15 18 22 23 23 27 31 31 33 38 39 38 39 39 38 38 39 40 40 41 41 41 38 35 34 32 32 33 27 21 24 29 29 31 32 31 32 32 31 27 24 25 22 20 20 19 18 18 18 18 19 19 19 19 18 18 18 18 19 19 20 20
4 3 3 4 4 5 4 5 3 3 3 11 8 9 7 10 8 6 5 7 13 15 15 15 13 12 12 13 13 14 13 12 12 14 14 15 18 21 20 19 22 27 31 35 35 34 34 33 33 34 35 36 39 40 40 41 41 39 35 33 35 34 32 27 22 24 30 30 30 32 31 32 32 31 29 25 23 22 20 20 20 19 19 18 17 18 19 18 18 18 18 19 19 19 19 19 20
4 3 4 6 3 4 3 1 2 2 7 8 10 14 10 10 9 9 7 8 12 13 12 11 10 12 12 11 9 8 9 8 9 11 13 14 15 16 16 17 20 24 29 33 32 34 34 31 31 34 35 35 37 38 39 39 40 41 38 37 39 39 34 31 27 28 32 32 32 33 33 32 31 31 30 23 20 21 20 20 21 20 18 18 19 19 19 18 17 17 17 18 19 20 20 18 19
8 3 4 5 1 2 2 2 3 8 8 5 10 15 14 13 8 5 5 6 7 10 11 10 9 9 9 7 5 6 7 7 7 9 10 11 11 12 14 17 19 19 23 28 31 33 33 33 32 32 34 35 35 36 37 38 39 41 41 40 41 41 39 38 36 36 36 35 35 33 31 31 30 29 28 23 20 20 21 21 21 21 20 20 20 19 18 17 17 16 16 17 19 19 19 19 20
8 4 6 5 2 3 4 4 4 9 6 1 3 11 13 14 11 9 8 6 7 8 9 9 8 7 7 5 5 5 5 4 6 7 7 8 9 10 13 17 18 16 21 26 28 30 31 32 32 30 33 36 35 36 38 39 40 42 43 42 43 43 42 42 41 41 39 36 36 33 30 29 28 27 26 26 24 22 22 22 20 21 21 21 21 19 18 17 16 16 17 18 19 19 20 22 22
10 9 9 8 4 5 8 7 4 7 4 2 2 5 7 9 8 13 16 14 13 11 9 9 9 9 6 3 3 3 3 5 6 6 7 7 8 9 12 16 17 18 22 24 27 30 29 28 28 28 30 32 34 37 39 41 42 43 45 45 45 44 43 43 43 41 39 36 34 33 32 31 30 31 31 31 30 26 24 22 20 20 20 19 19 19 18 17 17 17 17 18 19 19 20 22 24
12 10 9 9 6 4 7 8 7 6 1 2 4 4 6 5 0 3 8 10 10 8 7 6 7 7 5 4 5 5 5 6 6 6 7 8 8 9 12 14 15 18 21 22 25 29 30 29 29 30 29 29 33 37 39 41 44 45 45 45 45 46 44 44 43 40 37 35 33 32 34 34 34 35 35 34 33 31 28 24 21 21 21 20 21 20 19 18 17 17 18 19 20 20 20 22 24
9 7 8 9 6 3 2 1 3 2 0 3 6 4 5 2 6 8 6 6 7 8 6 6 7 6 4 6 7 6 7 6 6 7 8 9 9 10 11 11 12 15 18 20 24 27 30 31 30 32 32 30 32 36 37 39 43 44 44 44 45 44 42 41 41 39 37 36 36 35 35 36 35 35 34 34 34 32 30 27 26 27 26 25 25 24 23 20 18 19 19 20 20 20 21 23 23
7 8 9 6 2 3 3 1 2 1 6 6 7 7 7 4 11 13 12 13 13 12 10 8 8 5 4 7 7 6 7 6 5 6 7 8 9 9 10 11 12 13 15 19 23 26 30 30 28 29 28 25 27 33 36 37 38 40 41 43 43 42 41 42 42 41 39 38 37 36 36 35 35 35 33 34 33 32 31 26 25 28 28 28 27 26 26 23 21 21 21 21 21 20 21 22 22
5 9 9 4 0 2 2 4 2 2 8 5 8 12 9 6 7 4 7 14 17 17 12 7 5 5 5 7 7 7 6 5 6 6 7 8 8 8 9 10 12 13 14 17 19 23 27 28 28 27 25 25 26 30 34 36 36 38 39 41 42 42 42 42 43 41 37 36 36 36 35 34 35 35 34 34 33 31 31 26 22 24 26 28 28 26 26 25 23 22 21 22 22 22 22 22 24
2 7 9 6 3 4 3 5 6 6 9 6 7 9 8 10 8 3 6 8 8 11 9 5 6 7 6 6 6 5 3 4 5 5 6 6 6 7 8 9 11 14 16 17 18 20 23 26 27 27 25 26 27 29 32 35 36 38 40 41 41 41 41 40 39 36 33 34 35 34 34 35 35 35 34 35 32 28 28 25 22 23 23 23 25 25 26 26 25 24 24 24 25 24 25 25 25
4 4 6 2 2 4 5 5 4 5 8 8 5 4 5 10 10 10 16 12 5 5 5 7 9 6 5 5 4 3 2 3 5 4 5 5 4 5 6 8 11 13 16 18 18 20 21 23 26 27 26 25 26 29 32 33 35 37 39 40 39 37 35 34 32 29 29 33 35 35 34 33 33 31 29 31 28 23 24 24 23 24 24 23 24 26 28 28 27 27 27 27 26 26 27 27 26
7 7 8 5 2 1 3 5 3 3 7 8 7 6 5 6 10 15 19 15 12 9 6 8 7 4 5 4 3 4 4 5 5 4 4 4 3 4 5 8 11 12 14 16 17 19 20 22 24 26 27 26 27 29 31 33 34 36 37 37 37 33 27 25 24 23 25 28 30 31 30 27 26 24 22 25 26 23 23 23 24 27 28 28 29 29 29 29 30 30 29 29 28 27 28 27 26
12 10 11 10 8 4 4 7 5 3 5 5 5 8 6 4 7 12 13 12 14 12 8 7 6 6 6 3 3 6 5 6 5 4 4 4 3 4 5 7 10 11 13 14 17 19 20 21 22 24 26 28 29 31 32 33 33 34 35 34 35 33 24 20 22 22 22 23 23 25 24 22 22 23 24 28 30 28 26 25 26 29 30 31 31 31 30 29 30 31 30 30 29 28 28 27 26
Wind_Direction
320 328 329 325 337 280 272 317 246 154 251 267 204 226 151 133 352 188 164 153 155 162 174 112 148 141 119 316 269 354 322 266 351 348 78 63 140 148 142 146 148 145 145 146 149 149 146 144 142 148 140 133 135 135 135 133 129 122 118 113 105 100 103 109 108 103 108 113 111 110 110 104 98 99 93 93 99 103 107 107 103 99 96 92 90 91 93 92 91 87 83 82 79 80 81 83 84
319 331 336 315 337 309 240 295 267 191 233 255 182 202 119 141 209 198 174 162 95 121 153 144 152 145 7 337 307 260 234 76 16 33 73 111 143 153 150 149 152 148 147 146 149 149 148 150 152 156 151 148 142 136 134 132 130 124 123 118 108 103 111 117 116 119 117 116 120 118 113 108 106 106 106 108 106 105 108 109 107 104 98 93 90 89 91 92 90 88 86 83 79 81 83 84 85
317 334 338 300 323 318 138 233 253 230 241 266 179 147 133 176 195 185 149 113 67 112 139 138 154 172 260 232 219 264 173 89 84 89 98 142 149 163 159 152 155 151 150 148 151 149 147 154 160 161 156 157 152 142 137 134 131 126 128 123 116 108 112 120 126 135 124 118 125 120 112 112 112 111 111 111 105 106 111 110 108 103 97 94 92 89 90 91 90 90 88 85 82 82 84 86 86
312 328 338 287 274 220 208 252 251 265 243 273 237 146 171 196 175 132 89 92 94 133 146 155 165 141 268 259 357 290 198 96 129 125 131 160 153 154 157 155 156 153 153 151 152 151 151 156 158 160 152 152 157 156 151 145 141 132 128 126 120 115 121 130 136 140 131 126 127 119 113 114 114 114 108 105 105 109 113 109 107 103 98 95 92 91 90 90 89 91 90 86 84 83 84 87 87
304 317 354 293 261 317 254 282 212 253 255 273 293 144 186 196 153 120 105 121 117 144 158 178 183 102 262 297 325 288 60 91 129 140 146 158 146 147 155 156 156 156 156 153 154 151 156 159 153 157 154 151 158 167 166 160 154 146 137 131 123 121 129 141 145 142 138 132 130 129 125 121 117 115 109 108 110 115 115 108 108 105 100 97 94 93 92 92 91 91 90 86 85 84 85 89 90
303 289 16 53 208 9 227 241 217 230 314 289 277 104 185 188 148 131 127 136 132 285 177 197 210 142 195 192 258 300 13 45 135 145 156 155 148 150 154 155 158 158 156 155 156 153 159 163 156 157 159 156 160 171 172 169 165 159 150 137 131 131 135 152 156 148 145 138 134 136 132 131 125 117 114 112 109 110 112 110 110 108 103 97 95 95 94 95 95 94 93 90 87 86 87 90 91
311 272 9 57 129 282 251 249 252 238 74 244 299 42 170 175 147 140 145 155 171 211 214 221 228 190 183 116 214 217 17 349 105 126 160 156 148 153 156 156 160 159 158 157 156 156 162 165 161 158 159 161 167 171 163 160 163 166 158 142 140 138 138 163 169 157 151 142 137 136 134 137 132 116 115 117 114 112 112 111 112 109 106 101 98 97 97 98 98 98 95 93 91 89 91 92 92
312 312 270 287 215 229 263 255 263 270 90 238 295 355 152 164 158 159 161 167 174 172 187 202 225 225 159 116 218 138 136 317 76 110 151 156 150 157 159 158 161 162 161 158 158 159 165 166 163 162 163 169 173 168 156 156 161 160 154 144 144 141 142 169 170 156 152 143 141 141 138 139 134 115 114 117 115 116 114 112 113 111 109 106 105 102 101 102 100 99 95 93 92 91 93 95 95
295 329 228 266 256 241 248 258 257 267 237 232 228 237 283 171 173 172 168 165 153 170 180 168 202 233 136 167 215 113 194 228 121 126 149 156 153 158 161 163 163 164 164 161 163 160 165 168 165 165 163 163 160 160 157 161 163 152 149 147 147 144 145 169 168 150 151 146 142 145 143 137 127 118 118 118 114 117 115 114 115 113 112 109 108 107 106 105 102 101 96 95 94 92 92 95 96
272 12 286 261 244 250 241 245 232 217 215 244 240 203 206 177 180 179 173 166 149 171 160 127 202 240 175 183 189 114 189 182 156 142 151 158 155 160 162 167 165 164 167 165 166 162 166 168 166 166 159 153 151 157 156 157 157 148 149 151 151 151 152 173 181 154 151 148 147 152 146 137 130 129 130 126 123 124 120 120 120 116 116 115 115 112 109 107 104 102 97 97 95 90 87 90 91
257 85 309 256 232 243 243 242 228 198 176 261 253 189 189 177 177 177 174 164 159 174 146 156 211 211 216 219 183 113 158 173 168 155 155 159 158 160 160 167 170 168 170 169 169 166 167 169 167 166 159 155 159 161 156 150 146 147 156 161 160 163 162 173 184 169 158 155 158 160 153 148 142 143 145 138 136 134 129 127 126 124 123 121 119 116 115 111 106 104 101 99 94 88 83 84 84
254 235 220 252 243 243 253 261 248 217 191 238 215 165 174 178 177 180 184 178 174 188 173 186 196 171 199 238 163 120 162 180 171 164 158 160 163 162 161 166 172 174 175 173 173 170 167 170 168 166 164 161 165 165 161 158 150 156 169 172 171 170 172 172 170 168 166 168 169 164 161 161 154 152 145 137 137 136 137 133 132 132 130 124 121 120 119 114 108 108 107 102 95 91 86 83 79
252 252 238 253 250 251 253 263 264 262 232 227 192 145 165 179 188 193 186 179 176 187 190 185 165 199 215 235 127 139 178 181 169 166 160 163 168 165 165 166 173 178 180 178 177 176 172 171 169 169 171 167 171 172 170 168 161 166 175 177 180 177 180 182 173 171 176 174 172 168 162 161 158 153 139 136 137 142 145 139 137 141 136 126 125 127 116 113 114 114 113 107 102 97 88 81 72
263 261 248 253 232 245 239 249 247 239 233 183 133 139 170 190 203 200 181 188 187 180 174 168 163 210 223 188 178 178 176 173 165 164 162 167 169 169 171 168 173 181 186 183 179 181 179 177 174 173 174 170 173 176 177 177 172 175 179 179 186 187 186 191 188 187 193 184 176 175 167 166 164 152 142 143 144 155 159 150 148 154 148 131 138 140 120 120 128 126 123 114 111 102 83 72 66
270 268 250 250 241 233 217 237 243 242 233 144 136 146 175 208 231 200 195 209 191 116 90 146 191 206 207 200 182 135 158 162 162 162 164 169 169 173 175 174 178 184 190 187 185 186 185 184 181 177 175 174 174 174 180 180 179 183 187 186 191 195 192 195 198 197 201 201 194 189 181 179 177 168 160 155 152 168 172 167 164 168 165 149 153 153 136 143 144 139 137 132 128 117 99 77 73
273 255 245 246 238 229 201 204 185 236 224 137 135 144 180 195 209 212 222 265 150 118 179 166 192 252 330 197 54 51 150 155 159 161 163 166 169 175 177 182 184 187 192 192 192 191 189 189 188 186 183 183 180 176 178 178 183 188 190 192 195 198 198 199 200 202 203 203 203 200 194 190 190 187 183 183 172 172 178 185 192 191 186 173 165 164 162 164 158 157 153 145 144 137 128 94 83
155 230 241 240 228 224 192 184 184 225 197 134 151 170 188 182 173 241 2 288 203 155 211 179 172 255 346 52 38 80 149 151 157 161 164 167 169 175 182 187 188 189 193 196 197 194 193 194 194 194 192 190 188 183 180 179 188 192 191 193 196 199 203 203 202 205 205 203 205 207 204 199 200 201 202 206 199 199 198 203 213 214 210 195 179 177 179 180 178 179 159 141 144 145 148 120 71
194 221 232 236 233 220 189 192 193 234 237 169 178 189 197 188 171 177 161 205 209 168 205 210 212 225 205 48 52 143 150 154 162 167 169 171 174 179 185 190 191 192 193 195 198 198 196 198 199 198 197 195 192 190 188 187 191 193 192 192 198 200 202 205 205 207 208 207 209 209 207 204 206 209 213 214 215 222 223 223 225 225 226 214 198 190 187 192 195 193 155 145 155 158 186 230 294
213 225 232 238 237 206 178 204 200 215 254 172 180 196 205 199 166 166 198 195 190 203 207 213 228 216 189 152 138 149 158 166 170 176 178 179 182 184 186 189 192 194 194 196 198 199 198 200 201 200 201 198 195 196 198 197 194 194 192 191 198 202 203 205 205 208 208 207 210 208 209 213 212 216 221 222 225 232 234 236 235 233 232 224 213 204 200 205 208 209 190 194 225 244 260 263 280
218 224 236 238 217 168 189 212 210 206 270 169 181 189 211 210 155 167 207 196 192 215 213 200 221 220 191 163 157 160 169 177 179 185 188 188 190 189 190 191 193 196 196 198 199 200 200 201 202 202 204 202 200 201 202 199 195 196 195 193 198 199 203 205 205 208 208 209 212 210 215 221 221 224 227 228 230 233 234 238 240 240 238 230 221 216 213 215 220 223 223 237 254 259 268 274 278
190 213 236 240 152 223 212 203 213 182 59 215 168 158 209 210 154 185 195 196 207 223 222 208 216 218 188 159 162 170 175 184 188 192 195 197 197 197 198 196 195 197 195 199 203 203 202 202 204 204 205 207 205 204 205 204 200 199 198 198 200 199 200 204 207 210 212 218 219 215 221 229 232 231 228 229 229 231 232 235 238 236 238 233 226 224 222 223 229 234 239 249 257 259 265 273 273
199 225 238 210 136 232 205 178 190 139 121 195 162 174 193 159 186 209 200 212 222 220 222 218 221 216 178 164 168 173 181 189 192 197 200 202 202 201 201 199 198 198 198 202 204 204 203 203 204 203 205 209 210 209 209 209 206 204 203 204 205 206 205 205 208 211 216 222 222 221 228 235 237 233 231 232 233 236 237 240 243 242 244 238 232 233 230 229 234 240 246 252 259 264 268 274 277
224 231 231 190 181 231 197 146 168 158 178 187 180 187 155 164 211 212 212 226 228 65 213 223 226 200 150 159 167 176 186 192 196 200 202 203 205 204 202 200 199 200 201 206 206 205 204 203 204 204 205 210 213 214 214 215 216 212 209 210 210 210 211 210 212 213 218 222 222 225 231 234 235 232 234 235 237 239 240 244 249 251 251 244 239 239 239 238 239 244 249 254 261 267 271 273 276
229 235 218 191 193 224 306 129 165 178 197 192 153 166 178 198 211 183 218 231 193 72 38 332 195 145 144 160 173 185 191 195 199 201 203 205 207 207 206 203 202 203 204 209 207 205 207 204 203 207 207 208 213 216 218 220 221 218 216 217 215 214 215 214 217 217 219 222 221 225 226 226 229 230 233 235 238 241 243 247 252 254 254 249 244 240 243 246 246 249 252 258 262 266 271 274 273
224 236 208 167 191 193 294 123 176 189 200 169 149 198 207 203 198 170 223 230 197 134 76 63 135 152 169 181 185 192 194 198 202 200 203 208 210 210 210 209 207 207 209 210 208 208 210 207 205 209 209 208 210 215 220 222 225 225 221 220 219 220 222 219 219 219 221 223 222 224 222 222 226 227 231 233 237 242 245 248 253 256 254 250 246 241 243 245 249 252 255 259 262 267 271 271 270
211 227 203 159 199 169 173 191 189 199 200 170 193 217 217 166 66 246 235 225 187 163 173 143 153 172 187 195 194 196 198 200 200 197 201 205 208 209 210 211 211 212 213 211 210 211 211 210 211 212 211 210 211 213 219 224 228 228 224 222 223 224 226 222 222 222 222 223 224 226 225 225 227 228 232 233 236 242 245 249 253 255 253 248 242 241 242 243 249 252 255 259 262 268 270 268 269
194 211 198 162 195 156 184 207 179 194 215 192 211 226 203 107 212 237 234 205 175 182 203 191 190 200 197 201 202 202 206 205 199 193 194 201 206 209 210 211 212 213 213 211 212 211 211 213 214 215 212 211 212 214 219 224 227 229 226 224 225 227 228 227 227 228 226 225 225 227 227 228 229 231 232 232 236 239 241 248 251 250 247 243 238 238 242 243 247 251 253 256 260 266 267 267 272
181 184 176 174 175 173 194 207 179 187 212 189 217 246 197 140 213 231 216 128 180 198 203 199 212 219 206 204 203 204 213 209 199 192 193 199 203 205 207 209 211 211 212 212 213 212 212 213 214 216 214 213 213 217 222 224 227 230 228 225 225 227 230 231 232 233 231 229 227 227 228 228 229 231 232 233 237 239 240 246 247 244 241 239 238 238 243 245 246 249 251 255 260 265 268 270 276
169 173 200 191 186 222 200 191 185 198 203 168 197 255 234 211 210 232 220 126 192 211 208 204 215 224 212 204 203 206 212 204 197 202 205 204 202 202 204 206 206 208 212 212 212 213 213 213 214 215 216 217 216 216 220 224 227 230 229 228 226 227 232 234 234 235 235 232 228 228 229 228 230 232 234 236 239 241 241 243 244 242 239 239 241 242 246 248 247 250 253 257 261 266 270 272 276
164 185 231 197 209 231 196 175 173 195 191 155 190 245 241 222 203 220 218 160 177 213 216 213 215 222 216 206 207 210 206 200 203 210 213 210 206 205 206 204 202 205 210 211 212 212 213 212 213 213 215 218 220 218 220 225 227 229 232 231 228 227 231 234 235 236 235 233 231 230 231 228 230 233 235 236 238 239 240 241 241 239 238 237 242 247 250 252 251 253 256 260 264 266 269 268 268
165 168 248 217 224 220 175 168 174 188 180 156 199 244 253 228 187 208 213 172 187 216 218 217 215 215 219 215 214 217 208 206 211 215 217 215 212 209 208 205 202 204 206 209 211 211 213 212 211 212 213 216 221 222 221 223 226 229 233 233 232 230 229 232 235 237 236 235 234 233 234 230 230 234 234 235 236 236 238 238 237 235 233 234 242 249 250 251 250 252 256 260 265 265 266 267 267
177 178 211 216 223 206 169 176 189 196 177 171 198 237 253 250 187 201 198 176 199 224 225 222 220 214 217 220 219 224 217 213 216 219 219 217 217 215 212 207 203 205 206 207 208 209 212 213 212 213 214 216 220 222 222 224 228 230 233 234 235 236 234 234 236 239 239 238 238 238 239 237 236 238 235 234 235 236 236 237 237 236 236 239 246 250 250 250 248 251 257 260 264 265 265 267 268
213 215 212 207 209 211 195 178 200 205 161 187 212 242 251 250 201 182 140 185 205 226 232 229 227 222 218 218 220 222 220 214 218 224 223 219 219 219 216 212 209 208 207 208 206 206 209 212 213 215 216 217 219 223 225 225 228 230 232 235 237 238 237 237 238 240 239 239 241 241 242 243 243 243 239 235 236 236 235 236 238 242 245 247 249 250 250 249 248 252 257 257 259 263 265 267 267
203 214 219 209 200 209 210 173 188 202 195 209 216 238 251 250 204 172 143 195 207 225 236 235 233 230 224 222 221 223 225 221 220 224 222 217 218 218 218 217 215 212 212 213 211 209 209 209 212 214 216 217 218 222 225 224 227 229 231 234 236 236 236 238 240 240 240 242 243 243 245 245 244 244 241 237 237 236 236 240 244 249 252 252 252 251 249 248 249 251 254 253 251 257 261 264 268
202 201 205 200 195 208 214 194 159 183 209 225 215 230 247 247 227 203 192 191 211 228 234 239 238 234 230 227 227 226 228 230 228 226 221 216 215 215 216 217 217 216 215 217 216 214 213 212 211 212 214 215 216 219 222 224 225 227 230 231 233 235 236 237 238 238 241 243 243 244 244 242 240 238 235 235 236 233 238 246 250 252 253 253 253 252 248 245 246 247 249 252 249 252 258 262 268
212 201 197 187 192 211 215 195 142 182 207 224 223 235 247 244 234 222 215 198 213 236 242 245 243 240 236 230 231 228 227 232 231 226 221 213 212 215 216 216 217 218 218 218 217 215 215 215 213 215 216 213 213 216 218 220 221 222 224 225 226 230 233 236 237 237 239 242 242 242 241 238 235 233 236 240 241 240 243 250 253 252 253 253 252 249 245 242 243 245 248 251 251 252 256 261 265
212 189 194 192 197 211 208 175 136 186 215 225 227 242 251 248 240 231 228 222 224 238 244 246 242 239 236 232 233 230 229 233 232 230 223 213 214 218 218 216 215 216 218 217 217 216 216 216 215 219 218 211 209 213 214 215 217 218 219 222 223 225 230 235 238 239 239 241 242 241 239 237 234 234 241 243 244 246 249 251 252 253 253 252 248 245 242 242 243 245 248 249 251 253 254 254 257
221 182 186 193 205 210 188 166 142 163 221 239 230 243 255 252 246 238 230 232 240 239 240 244 242 240 240 239 238 237 235 229 230 235 226 216 215 216 215 213 211 213 217 217 217 218 218 218 219 221 219 214 212 212 211 214 216 216 217 220 221 224 230 234 237 239 241 243 244 242 239 238 236 235 243 244 242 245 248 250 251 253 253 247 243 243 242 244 245 243 246 247 248 250 251 249 243
244 198 185 196 199 184 142 140 134 160 211 249 240 249 264 260 254 246 229 229 245 243 238 243 243 241 243 243 242 242 240 231 230 234 223 214 214 212 212 212 212 215 218 219 218 218 217 219 221 220 219 221 221 217 214 216 218 218 218 219 221 226 231 235 237 239 242 243 242 242 242 241 238 237 243 246 242 240 241 246 249 251 250 241 236 243 243 242 244 241 241 243 244 246 250 250 238
256 215 194 193 168 167 198 172 151 181 213 284 292 270 271 268 262 247 225 222 243 246 239 240 239 238 241 243 244 240 241 238 232 233 222 212 211 210 211 212 212 214 215 214 213 213 214 218 222 220 219 223 225 224 223 222 223 221 220 223 225 230 235 237 239 239 237 237 236 238 239 240 240 241 246 246 243 239 237 241 244 243 243 237 234 242 242 239 240 239 238 239 241 242 246 248 238
258 241 213 184 156 172 172 128 143 179 228 262 294 279 269 263 258 250 225 214 235 244 238 238 233 233 239 241 242 238 238 240 233 233 224 209 211 211 211 212 211 211 212 211 210 213 218 221 224 224 221 225 227 228 228 225 223 222 218 220 225 228 232 231 230 232 228 226 230 229 233 241 243 244 244 241 239 239 237 237 236 236 239 237 234 239 241 239 238 237 236 235 235 238 243 246 238
247 252 241 194 155 154 114 126 150 210 235 206 219 260 265 254 249 248 228 204 229 240 233 238 234 231 235 234 239 239 236 238 233 234 226 209 214 214 212 212 210 212 216 215 216 220 223 223 225 226 225 227 228 229 228 224 222 221 213 210 215 217 221 224 224 223 220 221 227 230 237 244 244 242 238 234 236 238 238 236 233 234 237 235 233 235 239 238 237 237 236 235 235 237 243 250 243
236 239 249 205 146 143 141 152 177 232 247 176 190 245 267 267 253 245 233 209 234 242 229 235 237 231 232 230 236 239 236 235 232 234 229 216 215 213 213 213 210 216 220 220 221 224 224 223 224 226 225 226 227 227 227 223 220 218 214 213 215 213 217 223 223 222 223 227 232 237 242 245 244 243 237 232 235 235 237 236 233 233 233 234 234 234 236 237 236 237 235 234 237 237 237 246 248
233 193 205 184 146 151 153 165 203 233 279 107 191 231 269 270 260 245 239 231 245 252 242 237 232 226 229 230 234 236 235 233 229 230 227 222 219 215 216 215 216 222 222 221 223 225 224 223 224 225 225 225 226 226 225 224 220 216 216 217 219 220 223 225 224 225 229 232 236 240 243 244 245 244 238 236 238 236 235 235 232 231 232 232 233 233 236 238 237 237 236 235 237 238 234 239 245
248 216 193 170 147 148 150 182 218 253 319 251 204 175 251 263 254 205 214 232 245 249 245 242 233 222 224 229 231 231 233 230 227 229 228 223 221 219 220 219 220 223 222 222 225 226 224 224 224 224 224 224 225 225 225 224 222 219 218 218 220 224 228 228 225 227 232 234 238 241 242 242 243 243 241 240 240 237 234 235 233 231 231 231 232 234 237 238 238 236 235 237 237 237 236 236 241
242 222 148 83 82 97 116 196 199 97 245 249 203 169 230 267 261 225 187 216 239 244 246 245 236 223 221 225 226 228 232 230 227 232 234 229 224 223 223 223 223 224 224 226 226 226 226 224 223 222 222 224 225 226 224 223 223 221 219 218 221 225 226 225 223 228 234 235 238 240 239 240 241 241 240 239 238 235 232 234 234 232 232 233 234 236 237 237 239 237 236 238 238 237 238 236 238
155 188 115 74 48 65 71 143 118 182 241 235 187 177 216 265 262 232 204 207 228 240 247 245 233 229 231 231 228 230 235 235 232 237 241 240 236 231 227 227 228 227 227 228 227 227 226 224 222 222 223 223 224 225 223 223 223 222 221 221 225 226 225 225 224 228 233 233 234 236 236 237 238 238 238 235 232 231 230 232 234 234 233 234 235 237 239 237 237 239 238 238 237 237 237 236 237
147 184 143 112 80 88 110 122 154 229 241 214 186 182 204 241 249 222 215 211 224 242 250 250 236 228 237 238 231 231 234 238 241 242 243 242 240 233 228 229 228 223 223 225 225 225 224 224 223 222 222 222 222 223 222 221 222 223 224 224 227 228 228 228 229 231 232 230 231 231 232 233 234 235 235 231 229 228 229 231 234 234 233 233 236 235 236 237 236 238 237 236 237 236 235 236 239
163 168 156 156 172 154 190 188 188 231 234 88 186 187 204 239 251 246 246 237 235 241 245 253 250 238 238 229 216 210 207 223 237 241 242 235 233 227 222 225 223 213 215 220 222 222 222 223 222 219 221 221 219 220 222 221 222 223 225 226 228 229 230 231 232 233 233 231 231 229 227 227 227 228 228 228 229 227 227 230 230 232 233 235 236 235 235 236 234 236 236 237 237 236 238 240 242
177 176 174 178 171 172 202 206 216 238 230 75 135 185 224 252 251 244 243 242 243 242 239 243 245 247 251 242 235 221 207 224 228 234 238 232 232 229 223 223 218 212 215 216 218 220 219 219 219 218 220 219 217 219 221 222 223 225 226 227 228 229 230 232 234 235 234 233 231 229 228 228 228 230 230 232 235 232 231 232 229 231 234 235 235 235 235 234 233 235 236 237 237 238 241 244 245
186 184 185 193 182 188 203 204 220 227 188 135 157 175 218 213 184 255 240 248 256 257 257 250 245 250 265 277 264 249 238 233 225 230 240 239 238 236 232 230 221 216 216 213 216 219 218 218 219 220 221 219 219 221 222 222 224 226 227 228 230 230 232 233 234 234 233 232 231 230 231 233 233 235 237 239 240 239 238 237 234 235 236 236 237 236 235 235 233 234 235 238 239 240 241 243 246
189 181 195 210 199 191 189 201 233 203 151 200 187 233 240 227 320 297 250 253 257 251 251 241 243 242 243 263 260 250 248 240 231 235 240 243 239 231 231 233 231 225 219 214 216 217 218 218 220 222 223 221 221 222 222 223 225 226 227 228 229 229 229 230 231 232 231 232 233 234 235 236 237 238 239 241 242 242 242 239 240 242 241 240 240 239 238 236 233 234 237 239 239 238 239 241 242
181 190 200 213 202 190 193 195 60 57 263 225 181 240 260 276 289 273 245 246 244 237 230 220 232 230 223 253 253 243 246 239 239 243 242 247 244 234 230 229 230 230 225 221 220 218 219 220 219 221 222 218 218 222 224 224 225 226 226 227 228 227 226 227 229 231 233 234 235 237 238 239 240 240 240 242 243 244 242 238 240 244 243 242 241 240 240 238 236 236 236 236 236 234 236 239 241
166 196 184 141 5 263 229 228 195 208 254 233 183 224 236 219 254 260 224 236 239 235 223 194 208 217 220 244 242 236 243 245 252 254 252 254 251 246 239 233 233 233 233 230 225 223 223 222 222 222 221 218 218 221 224 225 225 225 226 228 228 228 229 231 232 232 234 235 236 238 238 239 241 242 242 243 244 244 241 237 236 240 241 241 240 239 240 240 238 237 236 238 240 239 239 243 246
213 210 177 148 196 200 177 218 217 213 240 249 202 214 227 214 216 220 217 222 236 239 223 192 208 215 220 240 244 248 262 272 268 259 255 250 242 245 244 245 248 247 245 239 233 230 227 225 225 224 223 222 221 222 224 225 224 225 228 230 230 230 231 233 234 233 233 236 237 238 239 240 241 242 243 244 243 240 238 235 233 235 236 237 238 237 239 240 239 240 240 240 241 242 241 242 244
263 233 186 173 225 190 179 203 216 213 237 261 236 201 228 215 198 219 238 239 242 240 219 220 227 221 226 235 245 270 286 278 269 258 255 249 239 246 249 256 262 258 254 247 238 232 227 225 225 224 224 223 222 223 224 224 224 225 228 229 230 230 231 232 233 232 233 237 239 239 240 241 241 241 241 241 238 233 232 231 231 233 233 232 234 237 239 240 241 242 243 242 244 245 243 242 244
202 200 187 186 216 208 196 201 216 225 229 247 252 246 243 199 176 208 231 238 235 229 214 219 225 228 235 226 234 267 263 253 255 253 259 271 282 279 270 268 268 263 256 247 235 228 223 223 224 223 224 222 222 223 223 223 224 225 227 228 229 230 228 228 230 230 231 234 237 238 238 237 236 235 233 233 233 230 230 229 230 235 236 235 236 239 241 241 241 242 241 242 243 243 242 242 244
189 193 188 187 186 177 191 202 202 224 233 236 259 266 254 165 173 206 219 225 227 226 220 218 220 227 233 222 227 246 247 246 252 252 252 266 272 268 266 262 262 260 253 241 229 223 221 222 223 223 223 223 224 224 224 224 224 225 227 228 229 229 225 224 226 227 228 229 230 232 233 231 230 231 231 232 234 232 231 230 232 237 238 238 239 240 241 240 240 241 241 241 240 240 241 243 246